Location: Lombard
(41.8800°N, 88.0080°W)
Time: 00:21:40
(UTC-05:00)

Transit 2A - Pass Details

Date: 14 February 2023
Orbit: 591 x 964 km, 66.7° (Epoch: 20 March)

Event Time Altitude Azimuth Distance (km) Brightness Sun altitude
Rises 15:53:31 0° 261° (W) 3,099 10.5 14.4°
Reaches altitude 10° 15:56:35 10° 281° (WNW) 2,257 9.3 13.9°
Maximum altitude 15:59:57 17° 322° (NW) 1,895 8.2 13.4°
Drops below altitude 10° 16:03:31 10° 2° (N) 2,430 8.3 12.8°
Sets 16:07:01 0° 22° (NNE) 3,447 8.9 12.2°
